Location: Tr�vern
(48.0333°N, 4.6000°W)
Time: 08:31:20
(UTC+00:00)

Cosmos 1867 - Pass Details

Date: 14 July 2020
Orbit: 778 x 798 km, 65.0° (Epoch: 04 August)

Event Time Altitude Azimuth Distance (km) Brightness Sun altitude
Exits shadow 03:47:58 - 195° (SSW) 2,935 6.0 -6.8°
Reaches altitude 10° 03:49:32 10° 191° (S) 2,349 5.5 -6.6°
Maximum altitude 03:54:42 47° 119° (ESE) 1,046 4.4 -6.0°
Drops below altitude 10° 03:59:54 10° 47° (NE) 2,375 8.0 -5.3°
Sets 04:02:24 0° 42° (NE) 3,310 9.3 -5.0°
